Regional Weather Roundup
Issued by NWS

Home | Current Version | Previous Version | Text Only | Print | Product List | Glossary Off
Versions: 1 2 3 4 5 6 7 8 9 10 11 12 13 14 15 16 17 18 19 20 21 22 23 24 25 26 27 28 29 30 31 32 33 34 35 36 37 38 39 40 41 42 43 44 45 46 47

000
ASUS45 KBOI 251110
RWRID
WEATHER ROUNDUP FOR IDAHO
NATIONAL WEATHER SERVICE BOISE ID
400 AM MST TUE NOV 25 2014

NOTE: "FAIR" INDICATES FEW OR NO CLOUDS BELOW 12000 FEET
WITH NO SIGNIFICANT WEATHER AND/OR OBSTRUCTIONS TO VISIBILITY

IDZ012-014-251200-
SOUTHWEST IDAHO


CITY           SKY/WX    TMP DP  RH WIND       PRES   REMARKS
BOISE          CLOUDY    41  35  79 SE8       30.27F
CALDWELL       NOT AVBL
MOUNTAIN HOME  CLOUDY    38  38 100 E7        30.27F WCI  32
$$

IDZ016-017-251200-
SOUTHCENTRAL IDAHO


CITY           SKY/WX    TMP DP  RH WIND       PRES   REMARKS
BURLEY         CLOUDY    39  29  67 W12       30.25F WCI  32
JEROME         CLOUDY    37  27  67 W3        30.26F
TWIN FALLS     CLOUDY    43  27  53 S12       30.26F
$$

IDZ019>023-251200-
SOUTHEAST IDAHO


CITY           SKY/WX    TMP DP  RH WIND       PRES   REMARKS
IDAHO FALLS    CLOUDY    34  24  67 SW21      30.17F WCI  22
POCATELLO      CLOUDY    38  23  55 S17G25    30.24F WCI  28
REXBURG        CLOUDY    33  22  63 SW17G29   30.15F WCI  22
$$

IDZ006-010-011-018-031-032-251200-
CENTRAL IDAHO MOUNTAINS


CITY           SKY/WX    TMP DP  RH WIND       PRES   REMARKS
MCCALL         LGT SNOW  30  29  96 CALM      30.20S FOG
HAILEY         MOCLDY    27  21  80 CALM      30.23F
STANLEY          N/A     31  25  78 SE7       30.21S WCI  24
SALMON         CLOUDY    30  28  93 N9        30.11F WCI  22
CHALLIS        CLOUDY    28  27  96 CALM      30.14F
$$

IDZ002-004-006-007-026-251200-
NORTHERN IDAHO


CITY           SKY/WX    TMP DP  RH WIND       PRES   REMARKS
LEWISTON       LGT RAIN  47  39  74 CALM      30.07S
LOWELL           N/A     33  32  96 CALM      30.15F
COEUR D`ALENE  CLOUDY    39  37  93 W13       30.01S WCI  32
MULLAN PASS    SNOW      31  29  92 VRB7G20   29.93S VSB 1/2 WCI  24
$$



USA.gov is the U.S. government's official web portal to all federal, state and local government web resources and services.